OpenBCM V1.08-5-g2f4a (Linux)

Packet Radio Mailbox

IZ3LSV

[San Dona' di P. JN]

 Login: GUEST





  
LU9DCE > KEP      06.01.20 18:13l 244 Lines 12078 Bytes #999 (0) @ WW
BID : 6757_LU9DCE
Read: GUEST
Subj: TLE 06 01
Path: IZ3LSV<DB0ERF<DB0RES<IR2UBX<EA2RCF<LU9DCE
Sent: 200106/1601Z 6757@LU9DCE.TOR.BA.ARG.SOAM LinBPQ6.0.19

            __    _  _  ___  ____   ___  ____    ____  ____  ____
           (  )  / )( \/ _ \(    \ / __)(  __)  (  _ \(  _ \/ ___)
           / (_/\) \/ (\__  )) D (( (__  ) _)    ) _ ( ) _ (\___ \
           \____/\____/(___/(____/ \___)(____)  (____/(____/(____/
               ESTACION DE PACKET RADIO - BUENOS AIRES (GF05OM)
                   BOLETINES INFORMATIVOS PROGRAMADOS (BIP)
                           LINUX - LU9DCE@GMX.COM
+----------------------------------------------------------------------------+
OSCAR 7
1  7530U 74089B   20006.19397552 -.00000041  00000-0  25818-4 0  9996
2  7530 101.7769 337.0078 0012129 319.8607  51.4556 12.53641456 65773
OSCAR 11 (UoSAT 2)
1 14781U 84021B   20006.09037616  .00000093  00000-0  17475-4 0  9996
2 14781  97.5981  26.1251 0009065  27.5018 332.6675 14.83132818928619
OSCAR 19 (LUSAT)
1 20442U 90005G   20005.84002478 -.00000005 +00000-0 +14467-4 0  9998
2 20442 098.6731 312.7169 0010674 277.9739 082.0233 14.32942080565129
EYESAT A
1 22825U 93061C   20006.49273066 -.00000007  00000-0  15353-4 0  9992
2 22825  98.9178   4.8874 0009220 127.2592 232.9431 14.30075000370795
ITAMSAT
1 22826U 93061D   20005.88773404 +.00000002 +00000-0 +18660-4 0  9994
2 22826 098.9118 004.2342 0009836 118.5810 241.6363 14.30409554370665
RADIO ROSTO
1 23439U 94085A   20005.84327722 -.00000040 +00000-0 +56191-4 0  9990
2 23439 064.8145 150.8341 0146045 073.8143 287.8797 11.27569379030572
JAS 2
1 24278U 96046B   20006.34436134 -.00000026  00000-0  71538-5 0  9992
2 24278  98.5648 137.7012 0351319  77.3786 286.6395 13.53095199155078
TECHSAT 1B
1 25397U 98043D   20005.90336522 -.00000020 +00000-0 +10719-4 0  9992
2 25397 098.7115 308.8011 0001733 134.9933 225.1386 14.23677169116287
ISS (ZARYA)
1 25544U 98067A   20006.55702477  .00001059  00000-0  26955-4 0  9991
2 25544  51.6453  73.1830 0005159 105.4393  49.5527 15.49542542206802
PCSAT
1 26931U 01043C   20005.92246074 -.00000029 +00000-0 +20677-4 0  9998
2 26931 067.0493 204.4008 0006800 263.3031 096.7297 14.30563646953681
SAUDISAT 1C
1 27607U 02058C   20006.51250837 -.00000008  00000-0  19616-4 0  9992
2 27607  64.5543 152.5475 0067447 216.4185 143.2321 14.75600164916810
CUTE-1
1 27844U 03031E   20006.49716357  .00000042  00000-0  38709-4 0  9999
2 27844  98.6834  16.6830 0010156 161.6307 198.5239 14.22214463856977
CUBESAT XI 4
1 27848U 03031J   20005.91367284 +.00000027 +00000-0 +32007-4 0  9998
2 27848 098.6907 016.6462 0009824 174.8381 185.2900 14.21804480856703
MOZHAYETS 4
1 27939U 03042A   20006.49058470  .00000078  00000-0  22644-4 0  9991
2 27939  98.0660 143.7290 0013856 145.0041 215.2076 14.66829020870124
CUBESAT XI 5
1 28895U 05043F   20006.37892251  .00000089  00000-0  25823-4 0  9990
2 28895  97.9848 147.5564 0018024  76.7711 283.5501 14.63726899756989
CUTE-1.7+APD II
1 32785U 08021C   20006.51009496  .00000228  00000-0  30173-4 0  9998
2 32785  97.5606   1.8260 0012031 319.0107  41.0205 14.88399802633708
DELFI C3
1 32789U 08021G   20006.38483318  .00000955  00000-0  67027-4 0  9991
2 32789  97.4409  54.7245 0013048 149.3269 210.8725 15.07370823637345
SEEDS
1 32791U 08021J   20005.71702623  .00000180  00000-0  23558-4 0  9994
2 32791  97.5332   7.1905 0011873 290.8507  69.1440 14.90945946634060
YUBELEINY
1 32953U 08025A   20006.41758499  .00000037  00000-0  19437-3 0  9999
2 32953  82.5039  19.3066 0020184  51.8130 308.4761 12.43093476527371
PRISM (HITOMI)
1 33493U 09002B   20006.35650591  .00001079  00000-0  99526-4 0  9997
2 33493  98.1322 300.0419 0013817 232.0250 127.9723 14.96863507595313
KKS-1 (KISEKI)
1 33499U 09002H   20006.15558301  .00000074  00000-0  18965-4 0  9999
2 33499  98.3322 216.1325 0007957 288.0640  71.9701 14.75493600588930
SWISSCUBE
1 35932U 09051B   20005.97620496  .00000090  00000-0  31425-4 0  9995
2 35932  98.6000 183.0683 0006552 267.8591  92.1855 14.56345870546077
BEESAT
1 35933U 09051C   20005.76126395 +.00000086 +00000-0 +30379-4 0  9994
2 35933 098.6011 184.6795 0004750 284.7121 075.3550 14.56427455546071
ITUPSAT 1
1 35935U 09051E   20006.48531122  .00000072  00000-0  27828-4 0  9994
2 35935  98.6122 185.6466 0007051 279.2455  80.7943 14.55579741545999
XIWANG-1 (HOPE-1)
1 36122U 09072B   20005.69187177 -.00000054 +00000-0 -30871-4 0  9999
2 36122 100.0813 003.6835 0006620 247.6943 112.3470 13.16352608483326
TISAT 1
1 36799U 10035E   20006.45971061  .00000502  00000-0  56596-4 0  9996
2 36799  98.1760 170.6404 0013110 140.3415 219.8763 14.91241762514837
JUGNU
1 37839U 11058B   20005.84644760 +.00000300 +00000-0 +18331-4 0  9994
2 37839 019.9592 194.9360 0018926 024.6901 100.4444 14.12668237425623
SRMSAT
1 37841U 11058D   20006.40280753  .00000299  00000-0  19158-4 0  9993
2 37841  19.9709 252.5174 0011815 252.2165 263.7717 14.10647254425216
M-CUBED/EXP-1 PRIME
1 37855U 11061F   20006.21851216  .00001203  00000-0  67355-4 0  9997
2 37855 101.7267  10.4413 0172121 199.2332 160.2330 15.05920455447107
HORYU 2
1 38340U 12025D   20005.88147655 +.00000125 +00000-0 +26141-4 0  9995
2 38340 098.3052 055.2427 0011202 197.0456 163.0377 14.75794958400426
STRAND 1
1 39090U 13009E   20005.51499167  .00000025  00000-0  23808-4 0  9995
2 39090  98.4677 212.9140 0010083  56.0232 304.1910 14.35112635359199
SOMP
1 39134U 13015E   20006.49634232  .00001358  00000-0  69954-4 0  9995
2 39134  64.8633  86.4109 0038022 270.8580  88.8191 15.20633027371279
BEESAT 3
1 39135U 13015F   20006.51854756  .00001098  00000-0  62698-4 0  9993
2 39135  64.8666 107.5079 0044520 272.2877  87.3153 15.17836089370878
BEESAT 2
1 39136U 13015G   20005.90762986 +.00000850 +00000-0 +52102-4 0  9993
2 39136 064.8716 113.9133 0031017 280.2269 079.5360 15.17257261370308
CUBEBUG 1
1 39153U 13018D   20006.49288231  .00000173  00000-0  29494-4 0  9992
2 39153  97.9814 108.5380 0015593 263.7041  96.2395 14.80648573361675
ZACUBE
1 39417U 13066B   20006.49613196  .00000231  00000-0  35159-4 0  9990
2 39417  97.5611  13.6368 0060404  92.2870 268.5262 14.81202599330912
TRITON 1
1 39427U 13066M   20006.16019059  .00000114  00000-0  26406-4 0  9998
2 39427  97.7031 336.3871 0112420 240.2351 118.7635 14.67926695327897
GOMX 1
1 39430U 13066Q   20006.48577345  .00000176  00000-0  41144-4 0  9998
2 39430  97.7730 315.0265 0150868 338.5979  20.8947 14.59334810326030
HUMSAT D
1 39433U 13066T   20005.91013913 +.00000296 +00000-0 +34052-4 0  9997
2 39433 097.5294 049.9173 0030323 351.9757 008.0974 14.92343048331903
CUBEBUG 2
1 39440U 13066AA  20006.44731532  .00000196  00000-0  34024-4 0  9996
2 39440  97.6157 358.1171 0080880 148.7005 211.9058 14.75939427329733
FUNCUBE 1
1 39444U 13066AE  20005.91157717 +.00000251 +00000-0 +36960-4 0  9991
2 39444 097.5573 015.2089 0059513 087.3007 273.5017 14.82039140329141
UWE-3
1 39446U 13066AG  20006.51204496  .00000204  00000-0  33491-4 0  9991
2 39446  97.5880   5.3575 0071239 120.8582 239.9663 14.78474246329085
SPROUT
1 39770U 14029E   20006.57839971  .00000329  00000-0  42278-4 0  9990
2 39770  97.8915 113.6824 0009699 138.1496 222.0472 14.87562618304843
UNISAT 6
1 40012U 14033C   20006.15340046  .00000129  00000-0  26514-4 0  9993
2 40012  97.7294 228.7743 0058541 166.3727 193.9079 14.74052351298363
DUCHIFAT 1
1 40021U 14033M   20005.84906704  .00000207  00000-0  26846-4 0  9992
2 40021  97.9341 296.1888 0014216 104.8832 255.3961 14.90778763301517
QB50P1
1 40025U 14033R   20005.76511731  .00000148  00000-0  21714-4 0  9992
2 40025  97.9114 290.1462 0013665 114.9760 245.2877 14.89048322301243
CHUBUSAT 1
1 40300U 14070C   20006.20489176  .00000460  00000-0  22823-4 0  9995
2 40300  97.3082  80.0900 0021239  68.2683 352.0919 15.22311583286674
NUDT-PHONESAT
1 40900U 15049B   20006.53836941  .00001667  00000-0  72793-4 0  9991
2 40900  97.4347  18.9449 0011975 189.2941 291.4127 15.23470704238384
ZDPS 2A
1 40901U 15049C   20006.54220367  .00000776  00000-0  41446-4 0  9993
2 40901  97.4618  14.4944 0012127 216.0227 260.2609 15.18011547237853
ZDPS 2B
1 40902U 15049D   20006.46181728  .00000958  00000-0  50467-4 0  9997
2 40902  97.4581  11.7581 0012275 213.2887 304.4225 15.17928796237818
XW-2A
1 40903U 15049E   20006.44893146  .00001543  00000-0  37488-4 0  9999
2 40903  97.3126  55.1162 0014599 129.7525 326.4769 15.42490403241348
KAITUO 1A
1 40904U 15049F   20006.46339794  .00000528  00000-0  31318-4 0  9994
2 40904  97.4724  10.0975 0013307 224.9543 289.8360 15.15559543237558
OBJECT G
1 40905U 15049G   20006.49060709  .00000215  00000-0  15270-4 0  9997
2 40905  97.4785   7.4740 0014353 220.9952 290.4103 15.14429833237413
XW-2C
1 40906U 15049H   20006.48737454  .00000565  00000-0  32959-4 0  9996
2 40906  97.4728  10.3041 0013600 214.6979 296.6781 15.15884026237567
XW-2D
1 40907U 15049J   20006.49903559  .00000327  00000-0  20435-4 0  9991
2 40907  97.4716  10.0031 0013105 211.5036 267.9209 15.16090792237589
LILACSAT 2
1 40908U 15049K   20006.46942743  .00000520  00000-0  32288-4 0  9991
2 40908  97.4857   8.5519 0014602 221.5473 291.3153 15.13930064237332
XW-2F
1 40910U 15049M   20006.46869382  .00000890  00000-0  47500-4 0  9994
2 40910  97.4657  12.2918 0013824 202.3362 312.7507 15.17632935237619
XW-2B
1 40911U 15049N   20006.48109560  .00000709  00000-0  40299-4 0  9999
2 40911  97.4729  10.6669 0012918 212.8529 299.1635 15.16021938237477
KAITUO 1B
1 40912U 15049P   20006.44506407  .00000742  00000-0  37582-4 0  9995
2 40912  97.4504  16.2221 0014582 182.2397 284.0463 15.19984469237952
TIANWANG 1C (TW-1C)
1 40926U 15051B   20006.23059503  .00013041  00000-0  16134-3 0  9995
2 40926  97.1102  57.3970 0006714 356.5251  76.4594 15.60201470241535
